Погода в Ассизи

Италия     43°04′06″N   12°37′10″E
темп.,
°C
ветер,
м/с
пор.,
м/с
влажн.,
%
обл.,
%
осадки,
мм/ч
давл.,
гПа
погр.,
м
25 февраля, чт
чт2501:00+8св11620 0.0 103222
04:00+7св00590 0.0 103122
07:00+6ссв11550 0.0 103122
10:00+13з00450 0.0 1031200
13:00+17з10380 0.0 1031395
16:00+18зюз00390 0.0 1030395
19:00+11вюв11500 0.0 103023
22:00+9ююв11610 0.0 103122
26 февраля, пт
пт2601:00+8юв11680 0.0 103122
04:00+7св00720 0.0 102922
07:00+6вюв00740 0.0 102922
10:00+12зсз00580 0.0 1029227
13:00+17сз11470 0.0 1028488
16:00+18з11460 0.0 1027567
19:00+12вюв01630 0.0 102723
22:00+10ююв01720 0.0 102722
27 февраля, сб
сб2701:00+8ю00790 0.0 102622
04:00+7св00820 0.0 102522
07:00+6с11840 0.0 102522
10:00+13сз11660 0.0 1026278
13:00+17сз12480 0.0 1025753
16:00+18с22450 0.0 1024977
19:00+11ссв23740 0.0 102534
22:00+9ссв23841 0.0 102636
28 февраля, вс
вс2801:00+7ссв23844 0.0 102639
04:00+6ссв22860 0.0 102629
07:00+5ссв22900 0.0 102635
10:00+11ссв23670 0.0 1027494
13:00+16ссв33480 0.0 1027799
16:00+16ссв33510 0.0 1027750
19:00+9с33740 0.0 102853
22:00+7ссв22790 0.0 102937
1 марта, пн
пн101:00+5с22810 0.0 102929
04:00+5с22840 0.0 102925
07:00+4с22860 0.0 102924
10:00+10с22640 0.0 1030328
13:00+15ссз22470 0.0 1030690
16:00+15с224321 0.0 1029784
19:00+9ссв225918 0.0 102925
22:00+7ссв12707 0.0 103122